Regional Weather Roundup
Issued by NWS

Home | Current Version | Previous Version | Graphics & Text | Print | Product List | Glossary On
Versions: 1 2 3 4 5 6 7 8 9 10 11 12 13 14 15 16 17 18 19 20 21 22 23 24 25 26 27
000
ASUS45 KBOU 210710
RWRCO

WEATHER ROUNDUP FOR COLORADO
NATIONAL WEATHER SERVICE DENVER/BOULDER CO
1200 AM MST TUE NOV 21 2017

NOTE: "FAIR" INDICATES FEW OR NO CLOUDS BELOW 12000 FEET WITH NO
SIGNIFICANT WEATHER AND/OR OBSTRUCTIONS TO VISIBILITY.

COZ001>005-013-030-031-210800-
...NORTHWEST COLORADO...

CITY           SKY/WX    TMP DP  RH WIND       PRES   REMARKS
CRAIG          CLOUDY    32  26  78 CALM      30.13S
HAYDEN         CLOUDY    34  25  69 SE5       30.14S WCI  30
MEEKER         FAIR      41  16  36 S5        30.16S
RABBIT EARS PA LGT SNOW  27  21  80 W9G22     30.17S WCI  17
STEAMBOAT SPGS CLOUDY    32  24  71 CALM      30.14R
WALDEN         CLOUDY    34  19  55 W18       30.13S WCI  23
$$

COZ006>008-011-210800-
...WEST CENTRAL VALLEYS...

CITY           SKY/WX    TMP DP  RH WIND       PRES   REMARKS
GRAND JUNCTION FAIR      34  19  54 CALM      30.22R
MONTROSE       FAIR      32  24  72 SE6       30.24F WCI  26
EAGLE          FAIR      41   9  26 NW9G17    30.17F
RIFLE          FAIR      33  27  78 CALM      30.23R
DELTA          FAIR      35  21  56 CALM      30.24R
NUCLA          FAIR      32  14  47 E7        30.27S WCI  26
$$

COZ017>023-064>068-210800-
...SOUTHWEST COLORADO...

CITY           SKY/WX    TMP DP  RH WIND       PRES   REMARKS
DURANGO        FAIR      25  14  63 CALM      30.18S
CORTEZ         FAIR      32  16  51 E7        30.22R WCI  26
PAGOSA SPRINGS FAIR      29  15  57 CALM      30.19S
TELLURIDE      FAIR      36   9  33 CALM      30.30F
WOLF CREEK PAS FAIR      30  14  51 W10G20    30.32S WCI  21
$$

COZ009-010-012-014-032>034-037-058>063-210800-
...CENTRAL COLORADO...

CITY           SKY/WX    TMP DP  RH WIND       PRES   REMARKS
ASPEN          CLOUDY    33  22  63 CALM      30.20R
BUENA VISTA    FAIR      43  -3  14 W20G29    30.10R
COPPER MTN     FLURRIES  28  10  47 MISG      30.23S
BERTHOUD PASS  CLOUDY    21  10  63 W33G51    30.16F WCI   2
COTTONWOOD PAS FAIR      41  -4  15 W25G38    30.13S
GUNNISON       FAIR      25  21  85 N3        30.22F
KREMMLING      FAIR      41   9  26 SW5       30.14R
LEADVILLE      CLOUDY    31   6  35 NW9G21    30.19R WCI  23
MONARCH PASS   FAIR      25  -6  26 W32       30.35S WCI   7
SALIDA         FAIR      49  -1  12 W20G37    30.16R
SUNLIGHT       FAIR      28   9  43 SW13G26   30.26S WCI  18
WILKERSON PASS FAIR      30   5  34 NW22G55   30.14R WCI  17
$$

COZ069>075-210800-
...SAN LUIS VALLEY/SANGRE DE CRISTO MOUNTAINS...

CITY           SKY/WX    TMP DP  RH WIND       PRES   REMARKS
ALAMOSA        FAIR      22  11  62 W7        30.13R WCI  13
DEL NORTE      FAIR      33   8  36 CALM      30.15R
LA VETA PASS   FAIR      32   3  29 MISG        N/A
SAGUACHE       FAIR      37  -2  18 NW17G24   30.14R
$$

COZ035-036-038>040-210800-
...NORTHERN COLORADO FRONT RANGE...

CITY           SKY/WX    TMP DP  RH WIND       PRES   REMARKS
DENVER INTL AP MOCLDY    53  11  18 SW13      29.91S
DMNS CITY PARK   N/A     54  11  17 W3G12     29.92R
AURORA         MOCLDY    47  15  27 CALM      29.93R
FRONT RANGE AP FAIR      50  16  25 W9        29.92S
ERIE MUNI ARPT FAIR      56  15  20 W10G20    29.95R
BOULDER MUN AP FAIR      55  18  22 CALM      29.89R
CENTENNIAL     MOCLDY    52  16  24 NW13      29.93S
BROOMFIELD     FAIR      55  10  16 W30G40    29.90S
FORT COLLINS   FAIR      55  22  27 NW14G21   29.88R
LONGMONT       FAIR      58  17  20 W12G25    29.91R
$$

COZ041-046-047-076>085-087-088-210800-
...PIKES PEAK/PALMER DIVIDE AND SOUTHERN FOOTHILLS...

CITY           SKY/WX    TMP DP  RH WIND       PRES   REMARKS
COLO. SPRINGS  MOCLDY    49  14  24 N12       29.96R
A. F. ACADEMY  FAIR      47  12  24 NW9       29.95F
SCHRIEVER AFB  MOCLDY    45   7  21 N5        29.97R
CHEYENNE MTN   MOCLDY    51   9  18 SW9       29.93R
ELLICOTT         N/A    N/A N/A N/A VRB5      29.95R
FALCON         FAIR      41  11  28 N6        29.99S
FORT CARSON    FAIR      47  14  26 SE8       29.93R
LIMON          FAIR      37  15  40 W5        29.92S
MONUMENT HILL  FAIR      37  16  41 W8        30.00S
CANON CITY     FAIR      55  18  22 CALM      29.94S
WALSENBURG     FAIR      54   0  11 W17G24    29.98R
TRINIDAD       FAIR      48  16  27 W10       29.94R
$$

COZ042>045-048>051-090-091-210800-
...NORTHEAST COLORADO...

CITY           SKY/WX    TMP DP  RH WIND       PRES   REMARKS
GREELEY ARPT   FAIR      43  21  41 N5        29.88R
AKRON          CLOUDY    51  15  23 NW9       29.86R
BURLINGTON     FAIR      43  19  38 S6        29.85F
WRAY           NOT AVBL
YUMA           PTSUNNY   45  23  42 W7        29.84R
STERLING       CLOUDY    50  21  32 SW7       29.82S
HOLYOKE        FAIR      54  19  26 W9        29.84R
FORT MORGAN    FAIR      44  15  30 W3        29.87R
$$

COZ086-089-092>099-210800-
...SOUTHEAST COLORADO...

CITY           SKY/WX    TMP DP  RH WIND       PRES   REMARKS
PUEBLO         FAIR      43  19  38 N10       29.92R
LA JUNTA       FAIR      38  18  44 W5        29.89R
LAMAR          FAIR      30  12  47 W3        29.86R
SPRINGFIELD      N/A     39  18  42 NW10      29.88R
$$




USA.gov is the U.S. government's official web portal to all federal, state and local government web resources and services.